Showing default

PRATHAM, 41783

Orbit data source: Space-Track

PRATHAM, 41783 is a payload satellite owned by IITB (IN) in SSO that was launched on Mon, 26 Sep 2016 UTC via a PSLV launch vehicle from the Sirharikota (SRI). Payload-class satellites include a variety of spacecraft equipped with specific instruments for various scientific and technological missions. These include communications satellites like Starlink; space stations such as the ISS; scientific satellites like the Hubble; Earth observation satellites from companies like Planet Labs, Umbra, and HawkEye 360; GPS; miniature CubeSats for education and research; and military/defense satellites.

Loading next visibility...
Identifier
41783, 2016-059A
Orbit
SSO
Country
Flag of ININ / IND
Related business
Manufacturer
IITB
Mission
Non-operational Amateur Science
Bus & Motor
PRATHAM, Unknown motor
Mass
10 kg wet, 10 kg dry
Launch date (UTC)
2016-09-26 (10 years ago)
Launch vehicle
PSLV
Launch site
Sirharikota (SRI)
Object type
Payload
Rocket body
Debris
Shape & HBR
Box, 0.2 m
Radar Cross Section
0.189 m², Medium (>0.1 m² and < 1m²)

Expand to show TLE details & history
Last TLE update: 2 days ago

TLE from 2 days ago
0 PRATHAM
1 41783U 16059A   26171.44898508  .00000422  00000-0  82753-4 0  9994
2 41783  97.8323 168.1635 0030518 205.8436 154.1247 14.67197427519997
Epoch: 2026-06-20T10:46Z
TLE epoch observation values (Epoch: 2026-06-20T10:46:32.310Z)
Latitude
0.00003°
Longitude
97.86542°
Altitude
692.405 km
Speed
7.5 km/s
True Right ascension
11h 12m 39s
True Declination
0° 00' 00"
Sunlit
Object was in daylight at epoch
Visualization orbit readout
Latitude
Unknown
Longitude
Unknown
Altitude
Unknown
Speed
Unknown
Apparent Right ascension
Unknown
Apparent Declination
Unknown
Sunlit
N/A
Visualization observer readout
Local Sidereal Time
21:36:25
Azimuth
Unknown
Elevation
Unknown
Doppler factor
Unknown
Orbital elements
Apogee altitude
688.585 km
Perigee altitude
645.584 km
Semi-major axis
7,045.221 km
Eccentricity
0.00305
Inclination
97.8323°
RAAN
168.1635°
Arg. of periapsis
205.8436°
True anomaly
154.2768°
Mean anomaly
154.1247°
Eccentric anomaly
154.2008°
Mean motion
3.6703 °/min
Orbital period
98.08 mins
BSTAR
0.000082753
Loading maneuver chart data...
Computing Atmospheric mass density...
Loading historical data...
Loading historical data...
Loading historical data...
Loading historical data...
Loading historical data...
Loading historical data...
Loading historical data...

Documentation

Showing up to 5 results
|